Location: Lawrence
(38.9720°N, 95.2350°W)
Time: 19:01:08
(UTC-05:00)

Amateur Radio Satellites - All Passes

Search period start: 24 March 2017 18:31
Search period end: 25 March 2017 18:31
Location: Lawrence, 38.9720°N, 95.2350°W

Satellite Date Start Highest point End Downlink Frequencies (MHz)
Time Altitude Azimuth
HO-68 24 Mar 18:32:20 18:37:16 21° 58° (ENE) 18:42:12 435.675
XW-2D 24 Mar 18:47:49 18:51:38 86° 257° (WSW) 18:55:27 145.860 - 145.880
KKS-1 24 Mar 18:48:32 18:52:21 28° 291° (WNW) 18:56:08 437.445
XW-2B 24 Mar 18:53:42 18:57:31 75° 258° (WSW) 19:01:20 145.730 - 145.750
NUDT-PHONESAT 24 Mar 18:55:29 18:59:14 89° 260° (W) 19:03:00 437.300
CUTE-I 24 Mar 18:55:42 19:01:05 87° 258° (WSW) 19:06:30 437.470
KAITUO 1B 24 Mar 18:59:55 19:03:41 77° 258° (WSW) 19:07:27 145.475/437.950
M-CUBED/EXP-1 PRIME 24 Mar 19:01:11 19:04:57 24° 100° (E) 19:08:44 437.505
O/OREOS (USA 219) 24 Mar 19:01:52 19:05:41 26° 300° (WNW) 19:09:33 437.305
XW-2C 24 Mar 19:03:52 19:07:37 53° 260° (W) 19:11:22 145.795 - 145.815
DOVE 4 24 Mar 19:25:39 19:29:37 29° 266° (W) 19:33:51 437.250
PCSat 24 Mar 19:25:41 19:30:38 34° 54° (NE) 19:35:32 145.827
CUBEBUG 2 24 Mar 19:29:21 19:32:18 17° 65° (ENE) 19:35:14 437.445
STARS 24 Mar 19:31:18 19:34:42 22° 293° (WNW) 19:38:05 437.465
STRAND 1 24 Mar 19:36:14 19:39:10 15° 92° (E) 19:42:03 437.568
RS-15 24 Mar 19:37:15 19:46:01 21° 14° (NNE) 19:54:39 29.354- 29.394
CUBESAT XI-V 24 Mar 19:38:48 19:40:47 13° 297° (WNW) 19:42:45 437.345
XW-2A 24 Mar 19:42:25 19:45:46 53° 76° (ENE) 19:49:09 145.665 - 145.685
LilacSat-2 24 Mar 19:57:22 19:58:54 12° 268° (W) 20:00:27 437.200
AAUSAT CUBESAT 2 24 Mar 19:57:56 20:00:53 19° 68° (ENE) 20:03:50 437.432
YUBILEINY 24 Mar 19:59:02 20:07:47 84° 83° (E) 20:16:31 435.215
XW-2F 24 Mar 20:00:00 20:01:30 12° 268° (W) 20:02:59 145.980 - 146.000
SEEDS 24 Mar 20:05:44 20:09:45 50° 74° (ENE) 20:13:48 437.485
CUTE 1.7 + AOD 2 24 Mar 20:08:13 20:12:27 86° 74° (ENE) 20:16:40 437.475
AO-73 24 Mar 20:16:09 20:18:55 16° 66° (ENE) 20:21:39 145.935
HO-68 24 Mar 20:17:04 20:24:12 77° 255° (WSW) 20:31:24 435.675
UWE-3 24 Mar 20:34:52 20:39:20 47° 73° (ENE) 20:43:47 435.000/436.395/437.385
M-CUBED/EXP-1 PRIME 24 Mar 20:35:11 20:39:22 35° 294° (WNW) 20:43:35 437.505
CUBEBUG 2 24 Mar 21:03:49 21:08:27 52° 261° (W) 21:13:06 437.445
PCSat 24 Mar 21:09:09 21:13:57 33° 251° (WSW) 21:18:43 145.827
STRAND 1 24 Mar 21:13:40 21:18:41 58° 287° (WNW) 21:23:40 437.568
Oscar 11 24 Mar 21:17:17 21:21:32 61° 75° (ENE) 21:25:48 .
ZACube-1 24 Mar 21:20:26 21:25:00 87° 77° (ENE) 21:29:33 437.345
AAUSAT CUBESAT 2 24 Mar 21:32:29 21:36:07 31° 263° (W) 21:39:47 437.432
DELFI C3 24 Mar 21:35:52 21:39:10 26° 70° (ENE) 21:42:27 145.870
SEEDS 24 Mar 21:44:08 21:45:43 12° 269° (W) 21:47:19 437.485
AO-73 24 Mar 21:50:21 21:54:45 48° 261° (W) 21:59:07 145.935
RS-15 24 Mar 21:50:57 22:02:47 48° 46° (NE) 22:14:05 29.354- 29.394
YUBILEINY 24 Mar 21:58:02 22:03:24 18° 282° (WNW) 22:08:46 435.215
AO-85 24 Mar 21:58:03 22:02:30 68° 119° (ESE) 22:06:40 145.980
ISS 24 Mar 21:58:09 22:01:22 60° 139° (SE) 22:04:36 437.550
Tancredo 1 24 Mar 22:07:41 22:10:51 89° 160° (SSE) 22:14:03 437.200
HO-68 24 Mar 22:10:56 22:12:56 11° 272° (W) 22:14:57 435.675
UWE-3 24 Mar 22:13:05 22:15:59 16° 268° (W) 22:18:52 435.000/436.395/437.385
PRISM 24 Mar 22:44:47 22:48:52 52° 100° (E) 22:52:55 437.425
TIGRISAT 24 Mar 22:46:43 22:50:21 24° 95° (E) 22:53:53 435.000
UNISAT 6 24 Mar 22:55:57 22:59:59 34° 97° (E) 23:03:55 437.425
Oscar 11 24 Mar 22:57:04 22:58:02 11° 270° (W) 22:58:59 .
DELFI C3 24 Mar 23:11:00 23:13:55 20° 266° (W) 23:16:51 145.870
ESTCUBE 1 24 Mar 23:17:47 23:21:33 28° 69° (ENE) 23:25:21 437.505/2401.250
FO-29 24 Mar 23:31:10 23:36:56 45° 97° (E) 23:42:07 435.910
ISS 24 Mar 23:35:35 23:38:05 20° 336° (NNW) 23:40:35 437.550
AO-85 24 Mar 23:41:00 23:43:16 14° 315° (NW) 23:45:27 145.980
Tancredo 1 24 Mar 23:45:19 23:47:23 16° 339° (NNW) 23:49:28 437.200
LO-87 24 Mar 23:46:46 23:50:19 64° 258° (WSW) 23:53:55 145.935 - 145.965
BEESAT 3 24 Mar 23:55:08 23:59:01 68° 303° (WNW) 00:02:59 437.485
SPROUT 25 Mar 00:02:32 00:05:47 21° 68° (ENE) 00:09:04 437.525
RS-15 25 Mar 00:03:49 00:15:29 55° 249° (WSW) 00:26:39 29.354- 29.394
BEESAT 2 25 Mar 00:06:16 00:10:09 59° 117° (ESE) 00:14:05 435.950
POLYITAN 1 25 Mar 00:18:42 00:21:54 21° 94° (E) 00:25:04 437.675
PRISM 25 Mar 00:21:48 00:23:41 13° 296° (WNW) 00:25:33 437.425
QB50P2 25 Mar 00:22:58 00:26:29 25° 96° (E) 00:29:59 145.880/145.840
TIGRISAT 25 Mar 00:23:14 00:26:58 27° 291° (WNW) 00:30:38 435.000
DX 1 25 Mar 00:23:22 00:26:20 18° 66° (ENE) 00:29:18 434.975-435.025
UNISAT 6 25 Mar 00:33:11 00:36:27 20° 293° (WNW) 00:39:39 437.425
AIST 2D 25 Mar 00:35:32 00:39:00 63° 100° (E) 00:42:27 435.315
DUCHIFAT 1 25 Mar 00:38:06 00:41:45 28° 96° (E) 00:45:22 145.980
VELOX 1 25 Mar 00:38:14 00:42:34 64° 74° (ENE) 00:46:57 145.980
SO-50 25 Mar 00:48:46 00:53:16 66° 57° (ENE) 00:57:43 436.795
50 SAT 25 Mar 00:53:07 00:56:29 56° 75° (ENE) 00:59:53 437.505
ESTCUBE 1 25 Mar 00:54:36 00:58:17 25° 264° (W) 01:02:01 437.505/2401.250
BUGSAT 1 25 Mar 01:02:50 01:05:37 17° 93° (E) 01:08:23 437.445
UKube-1 25 Mar 01:06:15 01:10:12 37° 71° (ENE) 01:14:10 .
FO-29 25 Mar 01:16:53 01:21:37 24° 298° (WNW) 01:25:59 435.910
NANOSAT C BR1 25 Mar 01:22:41 01:26:55 76° 284° (WNW) 01:31:05 145.865
EO-79 25 Mar 01:26:03 01:30:15 63° 285° (WNW) 01:34:24 145.935-145.965
SPROUT 25 Mar 01:37:41 01:41:30 31° 263° (W) 01:45:21 437.525
BEESAT 2 25 Mar 01:46:05 01:48:17 14° 316° (NW) 01:50:30 435.950
POLYITAN 1 25 Mar 01:53:59 01:57:42 30° 290° (WNW) 02:01:22 437.675
DX 1 25 Mar 01:58:09 02:02:12 38° 261° (W) 02:06:17 434.975-435.025
QB50P2 25 Mar 01:58:42 02:02:11 25° 291° (WNW) 02:05:38 145.880/145.840
BEESAT 25 Mar 02:05:59 02:08:17 14° 62° (ENE) 02:10:35 436.000
DUCHIFAT 1 25 Mar 02:13:59 02:17:15 22° 292° (WNW) 02:20:31 145.980
Oscar 19 25 Mar 02:14:40 02:19:20 34° 97° (E) 02:23:59 437.125/150
Gurwin Techsat 1B 25 Mar 02:14:43 02:18:26 19° 93° (E) 02:22:09 435.225
VELOX 1 25 Mar 02:18:36 02:19:25 10° 270° (W) 02:20:14 145.980
ITUPSAT 1 25 Mar 02:19:51 02:23:05 18° 65° (ENE) 02:26:21 437.325
SO-50 25 Mar 02:31:25 02:33:08 12° 252° (WSW) 02:34:50 436.795
BUGSAT 1 25 Mar 02:37:16 02:41:05 35° 289° (WNW) 02:44:50 437.445
MOZHAYETS 4 25 Mar 02:40:32 02:41:48 11° 62° (ENE) 02:43:02
UKube-1 25 Mar 02:43:24 02:46:19 18° 266° (W) 02:49:17 .
ISS 25 Mar 02:51:35 02:53:15 13° 16° (NNE) 02:54:55 437.550
Tancredo 1 25 Mar 03:00:03 03:01:56 14° 20° (NNE) 03:03:47 437.200
O/OREOS (USA 219) 25 Mar 03:32:59 03:37:26 45° 65° (ENE) 03:41:49 437.305
BEESAT 25 Mar 03:40:44 03:45:29 66° 258° (WSW) 03:50:15 436.000
Gurwin Techsat 1B 25 Mar 03:53:30 03:58:38 50° 289° (WNW) 04:03:44 435.225
Oscar 19 25 Mar 03:54:10 03:58:30 28° 293° (WNW) 04:02:50 437.125/150
ITUPSAT 1 25 Mar 03:55:56 04:00:32 46° 260° (W) 04:05:10 437.325
ITAMSAT 1 25 Mar 03:57:44 04:02:14 29° 96° (E) 04:06:41 435.822/435.867
AO-7 25 Mar 04:03:32 04:10:42 32° 97° (E) 04:17:50 .
KKS-1 25 Mar 04:09:16 04:12:38 21° 67° (ENE) 04:16:01 437.445
MOZHAYETS 4 25 Mar 04:13:42 04:18:18 75° 259° (W) 04:22:55
ISS 25 Mar 04:27:05 04:30:20 51° 36° (NE) 04:33:34 437.550
Tancredo 1 25 Mar 04:35:20 04:38:33 71° 37° (NE) 04:41:45 437.200
STARS 25 Mar 04:50:05 04:53:43 25° 68° (ENE) 04:57:22 437.465
CUBESAT XI-V 25 Mar 05:01:14 05:05:41 55° 74° (ENE) 05:10:11 437.345
O/OREOS (USA 219) 25 Mar 05:13:32 05:16:24 16° 261° (W) 05:19:17 437.305
ITAMSAT 1 25 Mar 05:37:04 05:41:39 32° 292° (WNW) 05:46:12 435.822/435.867
KKS-1 25 Mar 05:44:54 05:48:57 34° 262° (W) 05:53:02 437.445
M-CUBED/EXP-1 PRIME 25 Mar 05:46:42 05:49:24 20° 62° (ENE) 05:52:17 437.505
AO-7 25 Mar 05:55:44 06:03:44 56° 294° (WNW) 06:11:44 .
ISS 25 Mar 06:04:28 06:06:30 15° 230° (SW) 06:08:31 437.550
Tancredo 1 25 Mar 06:13:34 06:14:16 11° 232° (SW) 06:14:57 437.200
XW-2D 25 Mar 06:24:24 06:24:52 10° 91° (E) 06:25:20 145.860 - 145.880
STARS 25 Mar 06:26:10 06:29:57 27° 264° (W) 06:33:46 437.465
XW-2B 25 Mar 06:29:25 06:30:49 12° 92° (E) 06:32:12 145.730 - 145.750
AO-85 25 Mar 06:30:26 06:34:06 36° 54° (NE) 06:37:50 145.980
KAITUO 1B 25 Mar 06:34:48 06:35:38 11° 91° (E) 06:36:29 145.475/437.950
XW-2C 25 Mar 06:38:39 06:41:01 16° 93° (E) 06:43:21 145.795 - 145.815
CUBESAT XI-V 25 Mar 06:41:11 06:43:23 13° 269° (W) 06:45:35 437.345
STRAND 1 25 Mar 06:50:42 06:54:29 21° 64° (ENE) 06:58:14 437.568
YUBILEINY 25 Mar 07:05:27 07:10:59 19° 79° (ENE) 07:16:30 435.215
CUTE-I 25 Mar 07:14:11 07:19:15 41° 99° (E) 07:24:15 437.470
M-CUBED/EXP-1 PRIME 25 Mar 07:20:36 07:23:41 26° 260° (W) 07:26:59 437.505
DOVE 4 25 Mar 07:24:27 07:29:48 85° 102° (ESE) 07:35:02 437.250
NO-84 25 Mar 07:25:29 07:27:59 27° 130° (SE) 07:30:29 435.350 FM
LilacSat-2 25 Mar 07:29:03 07:32:50 78° 100° (E) 07:36:35 437.200
XW-2F 25 Mar 07:30:41 07:34:25 74° 101° (ESE) 07:38:08 145.980 - 146.000
HO-68 25 Mar 07:47:13 07:52:31 22° 93° (E) 07:57:48 435.675
AO-7 25 Mar 07:52:10 07:54:41 12° 315° (NW) 07:57:11 .
CUTE 1.7 + AOD 2 25 Mar 07:55:23 07:58:00 16° 93° (E) 08:00:36 437.475
XW-2D 25 Mar 07:55:42 07:59:18 46° 286° (WNW) 08:02:54 145.860 - 145.880
NUDT-PHONESAT 25 Mar 08:01:06 08:04:41 51° 285° (WNW) 08:08:13 437.300
XW-2B 25 Mar 08:01:40 08:05:12 40° 286° (WNW) 08:08:43 145.730 - 145.750
KAITUO 1B 25 Mar 08:06:21 08:09:52 43° 286° (WNW) 08:13:23 145.475/437.950
AO-85 25 Mar 08:11:34 08:14:12 17° 249° (WSW) 08:16:55 145.980
XW-2C 25 Mar 08:11:58 08:15:15 30° 288° (WNW) 08:18:33 145.795 - 145.815
BEESAT 3 25 Mar 08:13:01 08:16:54 44° 55° (NE) 08:20:44 437.485
BEESAT 2 25 Mar 08:25:19 08:28:44 25° 50° (NE) 08:32:06 435.950
STRAND 1 25 Mar 08:28:21 08:33:17 46° 261° (W) 08:38:15 437.568
XW-2A 25 Mar 08:38:05 08:41:29 69° 101° (E) 08:44:48 145.665 - 145.685
CUTE-I 25 Mar 08:54:47 08:59:00 24° 295° (WNW) 09:03:14 437.470
CUBEBUG 2 25 Mar 08:56:16 09:00:19 35° 97° (E) 09:04:14 437.445
YUBILEINY 25 Mar 08:57:52 09:06:38 82° 277° (W) 09:15:25 435.215
NO-84 25 Mar 09:03:23 09:05:31 19° 326° (NW) 09:07:42 435.350 FM
DOVE 4 25 Mar 09:04:28 09:06:41 13° 299° (WNW) 09:08:53 437.250
Oscar 11 25 Mar 09:07:39 09:09:20 12° 91° (E) 09:11:00 .
ZACube-1 25 Mar 09:11:14 09:14:02 17° 93° (E) 09:16:47 437.345
AAUSAT CUBESAT 2 25 Mar 09:15:09 09:19:04 40° 98° (E) 09:22:59 437.432
SEEDS 25 Mar 09:25:56 09:30:05 68° 285° (WNW) 09:34:15 437.485
CUTE 1.7 + AOD 2 25 Mar 09:30:03 09:33:58 39° 287° (WNW) 09:37:54 437.475
PRISM 25 Mar 09:33:00 09:36:34 30° 70° (ENE) 09:40:09 437.425
HO-68 25 Mar 09:33:38 09:40:42 66° 290° (WNW) 09:47:47 435.675
AO-73 25 Mar 09:39:45 09:43:34 33° 97° (E) 09:47:19 145.935
FO-29 25 Mar 09:41:10 09:47:03 24° 62° (ENE) 09:52:42 435.910
TIGRISAT 25 Mar 09:44:08 09:47:38 21° 67° (ENE) 09:51:08 435.000
BEESAT 3 25 Mar 09:51:50 09:54:06 15° 251° (WSW) 09:56:21 437.485
UNISAT 6 25 Mar 09:53:16 09:57:15 28° 69° (ENE) 10:01:14 437.425
UWE-3 25 Mar 10:02:03 10:06:21 66° 284° (WNW) 10:10:31 435.000/436.395/437.385
BEESAT 2 25 Mar 10:02:59 10:06:27 28° 247° (WSW) 10:09:55 435.950
PCSat 25 Mar 10:06:05 10:11:01 38° 110° (ESE) 10:16:00 145.827
CUBEBUG 2 25 Mar 10:33:30 10:36:40 19° 293° (WNW) 10:39:44 437.445
JUGNU 25 Mar 10:38:37 10:40:17 11° 178° (S) 10:41:57 437.505
Oscar 11 25 Mar 10:41:34 10:45:46 53° 286° (WNW) 10:49:56 .
ZACube-1 25 Mar 10:46:34 10:50:26 35° 289° (WNW) 10:54:14 437.345
DELFI C3 25 Mar 10:47:57 10:51:50 51° 99° (E) 10:55:44 145.870
AAUSAT CUBESAT 2 25 Mar 10:51:42 10:54:11 16° 294° (WNW) 10:56:41 437.432
YUBILEINY 25 Mar 10:59:58 11:04:51 16° 298° (WNW) 11:09:44 435.215
PRISM 25 Mar 11:08:59 11:11:52 19° 265° (W) 11:14:48 437.425
AIST 2D 25 Mar 11:09:26 11:11:59 19° 70° (ENE) 11:14:32 435.315
POLYITAN 1 25 Mar 11:10:54 11:13:17 15° 65° (ENE) 11:15:39 437.675
QB50P2 25 Mar 11:14:56 11:17:46 17° 66° (ENE) 11:20:36 145.880/145.840
AO-73 25 Mar 11:16:35 11:19:33 19° 293° (WNW) 11:22:30 145.935
LO-87 25 Mar 11:17:19 11:18:10 11° 91° (E) 11:19:01 145.935 - 145.965
TIGRISAT 25 Mar 11:19:40 11:24:02 38° 262° (W) 11:28:25 435.000
FO-29 25 Mar 11:23:33 11:31:24 73° 258° (WSW) 11:38:54 435.910
HO-68 25 Mar 11:24:37 11:27:05 12° 308° (NW) 11:29:32 435.675
DUCHIFAT 1 25 Mar 11:29:08 11:32:08 19° 67° (ENE) 11:35:09 145.980
UNISAT 6 25 Mar 11:29:50 11:33:51 28° 264° (W) 11:37:53 437.425
PCSat 25 Mar 11:49:44 11:54:27 30° 308° (NW) 11:59:14 145.827
BUGSAT 1 25 Mar 11:52:46 11:54:11 11° 63° (ENE) 11:55:36 437.445
NANOSAT C BR1 25 Mar 12:12:59 12:17:12 66° 75° (ENE) 12:21:27 145.865
RS-15 25 Mar 12:14:05 12:23:46 30° 102° (ESE) 12:33:40 29.354- 29.394
EO-79 25 Mar 12:16:36 12:20:52 80° 76° (ENE) 12:25:11 145.935-145.965
DELFI C3 25 Mar 12:24:41 12:26:10 12° 295° (WNW) 12:27:38 145.870
VELOX 1 25 Mar 12:31:03 12:33:14 13° 92° (E) 12:35:24 145.980
SRMSAT 25 Mar 12:39:12 12:40:38 11° 175° (S) 12:42:04 437.500
AIST 2D 25 Mar 12:42:13 12:45:03 22° 264° (W) 12:47:55 435.315
POLYITAN 1 25 Mar 12:44:30 12:48:38 47° 261° (W) 12:52:48 437.675
ESTCUBE 1 25 Mar 12:47:05 12:51:36 72° 102° (ESE) 12:56:06 437.505/2401.250
LO-87 25 Mar 12:48:21 12:51:50 42° 286° (WNW) 12:55:16 145.935 - 145.965
QB50P2 25 Mar 12:49:13 12:53:14 39° 262° (W) 12:57:15 145.880/145.840
DUCHIFAT 1 25 Mar 13:03:39 13:07:32 35° 262° (W) 13:11:28 145.980
FO-29 25 Mar 13:14:30 13:17:18 12° 273° (W) 13:20:06 435.910
SPROUT 25 Mar 13:24:01 13:28:09 46° 99° (E) 13:32:15 437.525
BUGSAT 1 25 Mar 13:24:48 13:28:58 62° 258° (WSW) 13:33:12 437.445
Oscar 19 25 Mar 13:30:16 13:35:04 43° 71° (ENE) 13:39:55 437.125/150
Gurwin Techsat 1B 25 Mar 13:34:24 13:38:51 28° 67° (ENE) 13:43:20 435.225
DX 1 25 Mar 13:47:11 13:51:16 37° 98° (E) 13:55:20 434.975-435.025
50 SAT 25 Mar 13:51:14 13:54:45 75° 102° (ESE) 13:58:15 437.505
NO-84 25 Mar 14:00:03 14:02:06 16° 32° (NNE) 14:04:15 435.350 FM
VELOX 1 25 Mar 14:05:37 14:09:58 52° 287° (WNW) 14:14:17 145.980
RS-15 25 Mar 14:23:04 14:35:03 76° 303° (WNW) 14:47:31 29.354- 29.394
ESTCUBE 1 25 Mar 14:26:29 14:27:46 11° 298° (WNW) 14:29:04 437.505/2401.250
SRMSAT 25 Mar 14:27:33 14:28:51 11° 186° (S) 14:30:09 437.500
UKube-1 25 Mar 14:29:46 14:34:07 81° 102° (ESE) 14:38:27 .
AO-7 25 Mar 15:01:09 15:08:43 41° 62° (ENE) 15:16:16 .
SPROUT 25 Mar 15:01:13 15:03:40 15° 295° (WNW) 15:06:06 437.525
SO-50 25 Mar 15:02:09 15:06:06 28° 113° (ESE) 15:10:02 436.795
Oscar 19 25 Mar 15:10:47 15:14:33 21° 266° (W) 15:18:21 437.125/150
Gurwin Techsat 1B 25 Mar 15:13:48 15:18:38 35° 263° (W) 15:23:30 435.225
ITAMSAT 1 25 Mar 15:14:19 15:19:10 40° 70° (ENE) 15:24:02 435.822/435.867
DX 1 25 Mar 15:24:04 15:27:10 19° 294° (WNW) 15:30:15 434.975-435.025
NO-84 25 Mar 15:36:37 15:39:52 60° 227° (SW) 15:43:26 435.350 FM
BEESAT 25 Mar 15:42:12 15:46:31 33° 97° (E) 15:50:48 436.000
ITUPSAT 1 25 Mar 15:57:23 16:01:59 47° 100° (E) 16:06:33 437.325
MOZHAYETS 4 25 Mar 16:10:16 16:14:09 27° 96° (E) 16:18:00
RS-15 25 Mar 16:40:06 16:50:06 28° 331° (NNW) 17:00:16 29.354- 29.394
SO-50 25 Mar 16:42:17 16:46:27 32° 309° (NW) 16:50:36 436.795
AO-7 25 Mar 16:53:29 17:01:20 45° 259° (W) 17:09:14 .
ITAMSAT 1 25 Mar 16:54:37 16:58:44 23° 265° (W) 17:02:52 435.822/435.867
CUBESAT XI-V 25 Mar 17:00:09 17:02:50 15° 92° (E) 17:05:30 437.345
BEESAT 25 Mar 17:20:18 17:24:06 24° 293° (WNW) 17:27:52 436.000
ITUPSAT 1 25 Mar 17:36:16 17:39:26 18° 295° (WNW) 17:42:33 437.325
KKS-1 25 Mar 17:36:28 17:40:49 47° 100° (E) 17:45:07 437.445
O/OREOS (USA 219) 25 Mar 17:43:45 17:48:13 67° 109° (ESE) 17:52:46 437.305
MOZHAYETS 4 25 Mar 17:47:24 17:51:13 27° 291° (WNW) 17:55:01
LilacSat-2 25 Mar 18:09:46 18:13:09 30° 72° (ENE) 18:16:31 437.200
XW-2F 25 Mar 18:10:31 18:13:49 28° 71° (ENE) 18:17:05 145.980 - 146.000
STARS 25 Mar 18:15:50 18:20:12 56° 101° (E) 18:24:31 437.465
HO-68 25 Mar 18:16:46 18:20:39 16° 55° (NE) 18:24:33 435.675
